Weather Roundup
Issued by NWS

Home | Current Version | Previous Version | Text Only | Print | Product List | Glossary On
Versions: 1 2 3 4 5 6 7 8 9 10 11 12 13 14 15 16 17 18 19 20 21 22 23 24 25 26 27 28 29 30 31 32 33 34 35 36 37 38 39 40 41 42 43 44 45 46 47 48 49 50
559
NZUS93 KARX 121759
HRRWXR

CURRENT HOURLY OBSERVATIONS ACROSS
MUCH OF THE UPPER MISSISSIPPI VALLEY
NATIONAL WEATHER SERVICE LA CROSSE WI
1200 PM CST FRI FEB 12 2016


...SOUTHEAST MINNESOTA...


CITY           SKY/WX    TMP DP  RH WIND       PRES   REMARKS
ROCHESTER      SUNNY      9  -1  64 NW29      30.32R BLWGSNOWWCI -13
ROCHESTER/MAYO FAIR      10  -3  54 NW25G35   30.34R WCI -10
WINONA         SUNNY     18   1  49 NW21G26   30.36R WCI   1
AUSTIN         SUNNY     10   0  61 NW22G28   30.36R WCI  -9
ALBERT LEA     SUNNY     10  -2  56 NW15G24   30.38R WCI  -6
DODGE CENTER   SUNNY     10  -2  56 NW25G31   30.34R WCI -10
PRESTON        SUNNY     11  -2  57 NW16      30.31R WCI  -6
OWATONNA       SUNNY     10  -2  56 NW23      30.40R WCI -10
FARIBAULT      NOT AVBL
$$

...ELSEWHERE IN MINNESOTA...


CITY           SKY/WX    TMP DP  RH WIND       PRES   REMARKS
MINNEAPOLIS    SUNNY     10  -5  50 NW15G25   30.44R WCI  -7
INTNL FALLS    SUNNY     -6 -20  50 W14       30.45R WCI -26
DULUTH         MOSUNNY   -2 -17  49 N16G25    30.33R WCI -23
RED WING       SUNNY     10  -8  44 NW12G22   30.39R WCI  -4
REDWOOD FALLS  SUNNY      8  -4  58 NW14G26   30.52R WCI  -8
MANKATO        SUNNY    N/A N/A N/A NW22G29   30.44R
WORTHINGTON    SUNNY      9   0  66 N22       30.49R WCI -11
FAIRMONT       SUNNY     10   0  61 NW24G30   30.44R WCI -10
$$

...SOUTHWEST WISCONSIN...


CITY           SKY/WX    TMP DP  RH WIND       PRES   REMARKS
LA CROSSE      SUNNY     15   1  53 NW21      30.31R WCI  -2
PRAIRIE DU CHI SUNNY     17   3  52 W16G24    30.31S WCI   2
BOSCOBEL       MOSUNNY   19   3  49 NW17      30.29R WCI   4
LONE ROCK      NOT AVBL
PLATTEVILLE    PTSUNNY   18   8  66 NW22      30.24S WCI   0
FORT MC COY    SUNNY     16   1  53 NW21      30.27R WCI  -2
VIROQUA        FAIR      14   1  56 NW20      30.22S WCI  -4
WIS DELLS      SUNNY     16  -2  44 NW14G23   30.19S WCI   1
$$

...ELSEWHERE IN WISCONSIN...


CITY           SKY/WX    TMP DP  RH WIND       PRES   REMARKS
MILWAUKEE      PTSUNNY   19   2  47 NW16G29   30.14S WCI   4
MADISON        MOSUNNY   16   1  51 NW12G22   30.19R WCI   3
GREEN BAY      MOSUNNY   14   0  53 NW17G28   30.12R WCI  -3
EAU CLAIRE     NOT AVBL
BLACK RVR FLS  FAIR      14  -5  42 NW16G26   30.28R WCI  -2
MEDFORD        PTSUNNY    6  -7  55 NW18      30.17R HAZE    WCI -13
WAUSAU         PTSUNNY   10  -6  48 NW14G28   30.16R WCI  -6
WIS RAPIDS     PTSUNNY   11  -6  46 NW23G36   30.21R WCI  -9
MARSHFIELD     PTSUNNY    9  -6  50 NW23G30   30.19R WCI -11
RICE LAKE      SUNNY      7 -10  47 NW13G21   30.34R WCI -10
$$

...NORTHEAST IOWA...


CITY           SKY/WX    TMP DP  RH WIND       PRES   REMARKS
WATERLOO       SUNNY     14   2  58 NW28      30.37R WCI  -6
DUBUQUE        MOSUNNY   17   5  59 NW21G29   30.26S WCI   0
DECORAH        SUNNY     12   0  57 NW18G25   30.29R WCI  -5
MASON CITY     SUNNY     12   2  64 NW24      30.41R WCI  -8
CHARLES CITY   SUNNY     12   1  62 NW23      30.37R WCI  -7
OELWEIN        SUNNY     14   5  67 NW25      30.34R WCI  -5
$$

...ELSEWHERE IN IOWA...


CITY           SKY/WX    TMP DP  RH WIND       PRES   REMARKS
DES MOINES     MOSUNNY   20   3  48 N15       30.45R WCI   6
IOWA CITY      PTSUNNY   22   9  57 NW15G30   30.37R WCI   9
FORT DODGE     SUNNY     14   1  57 N13G23    30.47R WCI   0
MARSHALLTOWN   SUNNY     16   6  65 NW23G29   30.41R WCI  -2
CEDAR RAPIDS   MOSUNNY   20  10  65 NW24G30   30.33R WCI   3
$$

...NORTHERN ILLINOIS...


CITY           SKY/WX    TMP DP  RH WIND       PRES   REMARKS
CHICAGO-OHARE  PTSUNNY   21   8  57 NW18G25   30.15S WCI   6
CHICAGO-MIDWAY PTSUNNY   24   8  50 W20G26    30.16S WCI  10
MOLINE         MOSUNNY   25  11  55 W20G31    30.29S WCI  11
ROCKFORD       PTSUNNY   21   7  54 NW22G28   30.22S WCI   5
PEORIA         CLOUDY    25  13  60 NW17G26   30.27R WCI  12
$$

NOTE: "FAIR" INDICATES FEW OR NO CLOUDS BELOW 12,000 FEET WITH NO
SIGNIFICANT WEATHER AND/OR OBSTRUCTIONS TO VISIBILITY. WIND
SPEEDS ARE IN MILES-PER-HOUR.




USA.gov is the U.S. government's official web portal to all federal, state and local government web resources and services.